[[{"header":{"parameterUnit":"m.s-1","parameterCategory":1,"la1":30.2991,"la2":30.254,"lo1":-89.0895,"lo2":-89.0444,"dy":0.0017,"dx":0.0017,"nx":28,"ny":28,"refTime":"2023-08-07T21:00:00:Z","depth":0,"parameterNumber":2,"parameterNumberName":"U-component_of_WINDS"},"data":[0,0,0,0,0,0,0,0,0,0,0,0,0,0,0,0,0,0,0,0,0,0,0,0,0,0,0,0,0,0,0,0,0,0,0,0,0,0,0,0,0,0,0,0,0,0,0,0,0,0,0,0,0,0,0,0,0,0,3.1129,3.113,0,3.121,3.1211,3.1212,3.1184,3.1182,3.118,3.1178,3.1259,3.1262,3.1266,0,0,0,0,0,0,0,0,0,0,0,0,0,3.0946,3.095,3.1129,3.113,3.1131,3.121,3.1211,3.1212,3.1184,3.1182,3.118,3.1178,3.1258,3.1262,3.1267,0,0,0,0,0,0,0,0,0,0,0,0,0,3.1026,3.0951,3.1129,3.1126,3.1127,3.1209,3.1211,3.1212,3.1184,3.1182,3.1179,3.1177,3.1256,3.1262,3.1267,3.1356,0,0,3.1285,3.1287,0,0,0,0,0,0,0,0,3.1022,3.1033,3.1126,3.1127,3.1128,3.1184,3.1176,3.126,3.1185,3.1163,3.1178,3.1175,3.1236,3.1243,3.1264,3.1359,3.1363,3.1285,3.1289,3.1291,3.1293,0,0,0,0,0,0,0,3.1016,3.1029,3.1161,3.1127,3.1128,3.112,3.1129,3.1192,3.1213,3.1164,3.1162,3.1173,3.1236,3.1259,3.1266,3.1364,3.1285,3.129,3.1294,3.1296,3.1533,3.1535,0,0,0,0,0,0,3.1011,3.1025,3.1158,3.1163,3.1067,3.1126,3.1135,3.1168,3.1212,3.1217,3.1175,3.1171,3.125,3.1259,3.1268,3.1372,3.1291,3.1296,3.13,3.153,3.1533,3.1536,0,0,0,0,0,0,3.1007,3.1023,3.1155,3.1094,3.111,3.1132,3.1169,3.1171,3.1194,3.122,3.1224,3.1194,3.1248,3.126,3.1334,3.1374,3.1299,3.1304,3.1526,3.1531,3.1535,3.1581,0,0,0,0,0,0,3.1002,3.1022,3.1056,3.1095,3.1113,3.122,3.1172,3.1175,3.1204,3.12,3.1239,3.1243,3.1247,3.1325,3.1339,3.1381,3.1309,3.1523,3.1528,3.1533,3.1576,3.1587,3.1596,0,0,0,0,0,3.0995,3.1067,3.1058,3.1075,3.1157,3.1222,3.1233,3.1236,3.1208,3.1242,3.1258,3.1242,3.1368,3.1333,3.1349,3.1392,3.152,3.1527,3.1533,3.1572,3.1585,3.1596,0,0,0,0,0,0,3.1032,3.1072,3.1063,3.1149,3.1183,3.1218,3.1261,3.1251,3.1292,3.1287,3.1289,3.1298,3.1372,3.139,3.135,3.1479,3.144,3.145,3.1464,3.1476,3.1486,3.1479,3.1313,0,0,0,0,0,3.105,3.1101,3.1133,3.1205,3.1223,3.1239,3.1268,3.1267,3.1302,3.1316,3.1338,3.1371,3.1418,3.1449,3.1494,3.158,3.1586,3.1617,3.1627,3.1635,3.1643,3.1686,3.17,3.1558,3.1558,3.1557,0,0,3.1088,3.1116,3.1148,3.1213,3.1239,3.129,3.1251,3.1307,3.1344,3.1324,3.1394,3.1411,3.1448,3.1527,3.1563,3.1544,3.1684,3.1643,3.1649,3.1653,3.1694,3.1708,3.1719,3.1562,3.1561,3.156,0,0,3.1182,3.121,3.1272,3.1299,3.1339,3.1349,3.1364,3.1401,3.1411,3.1482,3.1467,3.1511,3.1592,3.1618,3.1642,3.1745,3.173,3.176,3.181,3.1852,3.1863,3.1873,3.1906,3.1919,3.1768,3.1768,3.1768,0,3.1224,3.1301,3.1305,3.1361,3.1389,3.1375,3.1436,3.1462,3.1514,3.1533,3.1511,3.1612,3.1636,3.1719,3.1744,3.1766,3.178,3.1754,3.1862,3.1871,3.1881,3.1912,3.1925,3.1771,3.1771,3.177,3.177,0,3.1348,3.1401,3.1447,3.1497,3.153,3.1589,3.1601,3.1634,3.1631,3.1643,3.1713,3.1742,3.1791,3.1811,3.1809,3.1894,3.188,3.1861,3.1821,3.1897,3.1927,3.1939,3.1775,3.1774,3.1773,3.1773,0,0,3.1466,3.1518,3.1534,3.1556,3.1599,3.1639,3.1696,3.1745,3.1771,3.1808,3.1854,3.1923,3.1904,3.1932,3.1932,3.197,3.2045,3.1945,3.1946,3.196,3.2137,3.2149,3.2163,3.2037,3.204,3.2042,3.2132,0,3.1561,3.1662,3.1667,3.1758,3.1805,3.1792,3.1841,3.1872,3.1885,3.1926,3.194,3.1987,3.196,3.1976,3.2013,3.2028,3.208,3.2023,3.2077,3.2079,3.2065,3.2179,3.2193,3.2277,3.2144,3.2146,3.2148,0,3.1685,3.1725,3.1821,3.1854,3.1874,3.1919,3.1962,3.2003,3.2036,3.2043,3.2073,3.2067,3.2124,3.2085,3.2161,3.2121,3.2144,3.2155,3.2159,3.2161,3.2116,3.2182,3.2305,3.2316,3.2167,3.2165,3.2164,0,3.1757,3.1835,3.1902,3.1921,3.1963,3.1994,3.2013,3.2044,3.2072,3.211,3.2127,3.2172,3.2195,3.2229,3.2235,3.2206,3.231,3.2272,3.2315,3.2314,3.2335,3.2333,3.2459,3.2355,3.2355,3.2355,3.2355,0,3.1861,3.1919,3.1934,3.1975,3.2039,3.2044,3.2107,3.2123,3.2151,3.2193,3.2185,3.2224,3.2232,3.2272,3.2278,3.2338,3.235,3.2355,3.2355,3.2354,3.2353,3.2366,3.2359,3.2358,3.2357,3.2357,3.2356,0,3.1951,3.1964,3.2035,3.2069,3.2079,3.2124,3.2152,3.219,3.2202,3.2255,3.2268,3.2286,3.2333,3.2343,3.24,3.2403,3.2474,3.247,3.2462,3.2461,3.2502,3.2496,3.2639,3.2657,3.2544,3.2545,3.2546,0,3.2014,3.2059,3.2097,3.2125,3.2145,3.219,3.2218,3.2225,3.2254,3.2295,3.2327,3.2374,3.2411,3.2487,3.2504,3.2547,3.2541,3.2589,3.2548,3.2544,3.2538,3.2534,3.2537,3.2595,3.2597,3.2598,3.2598,0,3.2124,3.2128,3.217,3.2213,3.2247,3.2281,3.2314,3.2337,3.2348,3.2381,3.2429,3.2458,3.2515,3.256,3.2603,3.262,3.261,3.2612,3.2623,3.262,3.2613,3.2614,3.248,3.2608,3.2607,3.2606,3.2605,3.2605,3.2201,3.2238,3.227,3.2316,3.2341,3.2372,3.2408,3.2424,3.2465,3.2512,3.2513,3.2565,3.2596,3.2651,3.2672,3.2711,3.2697,3.2714,3.2718,3.2721,3.2723,3.2609,3.272,3.2719,3.2719,3.2719,3.2719,0,3.2307,3.2327,3.2369,3.2415,3.245,3.2439,3.2474,3.2504,3.255,3.258,3.2616,3.2671,3.2714,3.2735,3.2778,3.2805,3.2801,3.2816,3.2812,3.2816,3.2736,3.272,3.2818,3.2818,3.2818,3.2818,3.2818,3.2818,3.2366,3.2428,3.2436,3.2509,3.2529,3.2579,3.26,3.2627,3.2651,3.2711,3.2748,3.2761,3.2787,3.2831,3.287,3.2875,3.2889,3.2905,3.2908,3.2832,3.2822,3.2812,3.2797,3.2909,3.2909,3.2984,3.2984,3.2985]},{"header":{"parameterUnit":"m.s-1","parameterCategory":1,"la1":30.2991,"la2":30.254,"lo1":-89.0895,"lo2":-89.0444,"dy":0.0017,"dx":0.0017,"nx":28,"ny":28,"refTime":"2023-08-07T21:00:00:Z","depth":0,"parameterNumber":3,"parameterNumberName":"V-component_of_WINDS"},"data":[0,0,0,0,0,0,0,0,0,0,0,0,0,0,0,0,0,0,0,0,0,0,0,0,0,0,0,0,0,0,0,0,0,0,0,0,0,0,0,0,0,0,0,0,0,0,0,0,0,0,0,0,0,0,0,0,0,0,3.1066,3.1067,0,3.1154,3.1155,3.1156,3.1131,3.1129,3.1127,3.1125,3.1214,3.1218,3.1222,0,0,0,0,0,0,0,0,0,0,0,0,0,3.0873,3.0877,3.1066,3.1067,3.1068,3.1154,3.1155,3.1156,3.1131,3.1129,3.1127,3.1124,3.1212,3.1217,3.1222,0,0,0,0,0,0,0,0,0,0,0,0,0,3.0959,3.0878,3.1066,3.1066,3.1067,3.1154,3.1155,3.1157,3.1131,3.1129,3.1126,3.1123,3.1211,3.1217,3.1223,3.1314,0,0,3.1241,3.1244,0,0,0,0,0,0,0,0,3.0954,3.0966,3.1065,3.1066,3.1067,3.1129,3.112,3.121,3.1132,3.1107,3.1125,3.1122,3.1187,3.1195,3.1218,3.1319,3.1322,3.1242,3.1245,3.1248,3.125,0,0,0,0,0,0,0,3.0948,3.0962,3.1101,3.1066,3.1068,3.1061,3.107,3.1136,3.1161,3.1109,3.1107,3.1118,3.1188,3.1212,3.122,3.1324,3.1242,3.1247,3.1251,3.1253,3.1502,3.1505,0,0,0,0,0,0,3.0941,3.0957,3.1098,3.1103,3.1003,3.1066,3.1077,3.1112,3.116,3.1165,3.112,3.1117,3.1203,3.1213,3.1223,3.1332,3.1248,3.1254,3.1257,3.1499,3.1503,3.1506,0,0,0,0,0,0,3.0937,3.0954,3.1094,3.103,3.1047,3.1073,3.1112,3.1115,3.1139,3.1169,3.1173,3.1141,3.1201,3.1214,3.1292,3.1335,3.1256,3.1262,3.1496,3.1501,3.1505,3.1553,0,0,0,0,0,0,3.0932,3.0953,3.0989,3.1031,3.1051,3.1163,3.1115,3.1118,3.115,3.1146,3.1189,3.1194,3.12,3.1283,3.1298,3.1342,3.1267,3.1492,3.1498,3.1503,3.1547,3.1558,3.1568,0,0,0,0,0,3.0925,3.0999,3.0991,3.1008,3.1096,3.1165,3.1177,3.1183,3.1154,3.1189,3.1208,3.1193,3.1328,3.1291,3.1307,3.1354,3.1489,3.1496,3.1503,3.1543,3.1556,3.1567,0,0,0,0,0,0,3.0961,3.1004,3.0996,3.1085,3.1122,3.1161,3.1206,3.1197,3.1242,3.1236,3.1241,3.1251,3.133,3.135,3.1308,3.1445,3.1404,3.1415,3.1429,3.1442,3.1452,3.1445,3.1272,0,0,0,0,0,3.0979,3.1033,3.1067,3.1143,3.1162,3.1181,3.1211,3.1213,3.125,3.1266,3.129,3.1327,3.1378,3.1411,3.1459,3.155,3.1559,3.159,3.16,3.1609,3.1617,3.1666,3.168,3.1528,3.1528,3.1528,0,0,3.1017,3.1048,3.1081,3.1151,3.1179,3.1234,3.1194,3.1253,3.1293,3.1274,3.1349,3.1368,3.1409,3.1494,3.1532,3.1513,3.1661,3.1617,3.1624,3.1628,3.1674,3.1688,3.1701,3.1533,3.1532,3.1531,0,0,3.1115,3.1144,3.1209,3.1239,3.1282,3.1294,3.131,3.1351,3.1363,3.1438,3.1424,3.1471,3.1559,3.1588,3.1615,3.1722,3.1709,3.1738,3.1791,3.1838,3.185,3.186,3.1898,3.1911,3.1746,3.1747,3.1747,0,3.1157,3.1239,3.1244,3.1305,3.1335,3.1321,3.1386,3.1414,3.1471,3.1492,3.147,3.1578,3.1605,3.1695,3.1721,3.1744,3.1761,3.1733,3.1848,3.1858,3.1868,3.1904,3.1918,3.175,3.1749,3.1749,3.1749,0,3.1288,3.1345,3.1392,3.1448,3.1484,3.1547,3.156,3.1596,3.1594,3.1608,3.1684,3.1715,3.1769,3.179,3.1789,3.1881,3.1867,3.1846,3.1805,3.1886,3.1919,3.1933,3.1754,3.1753,3.1752,3.1751,0,0,3.1411,3.1468,3.1485,3.151,3.1556,3.16,3.1661,3.1714,3.1744,3.1784,3.1835,3.1908,3.1889,3.1919,3.1921,3.1962,3.2044,3.1936,3.1937,3.1954,3.2145,3.216,3.2176,3.2036,3.2038,3.204,3.2141,0,3.1511,3.162,3.1626,3.1725,3.1776,3.1763,3.1816,3.185,3.1865,3.191,3.1926,3.1978,3.1949,3.1967,3.2007,3.2025,3.2082,3.2018,3.2082,3.2084,3.2072,3.2194,3.221,3.2304,3.2155,3.2157,3.2159,0,3.1644,3.1687,3.1791,3.1829,3.1851,3.1899,3.1947,3.1992,3.2029,3.2037,3.207,3.2065,3.2127,3.2084,3.2169,3.2125,3.2152,3.2164,3.2168,3.2174,3.2126,3.2202,3.2334,3.2348,3.2179,3.2178,3.2176,0,3.1721,3.1806,3.1879,3.19,3.1947,3.1981,3.2002,3.2037,3.2068,3.211,3.213,3.2179,3.2205,3.2242,3.2251,3.2219,3.2335,3.2293,3.2342,3.2342,3.2367,3.2365,3.2505,3.2385,3.2385,3.2384,3.2384,0,3.1833,3.1897,3.1914,3.1959,3.203,3.2035,3.2105,3.2123,3.2154,3.2201,3.2193,3.2237,3.2246,3.2291,3.2298,3.2367,3.2379,3.2386,3.2387,3.2387,3.2386,3.2404,3.2397,3.2388,3.2387,3.2387,3.2386,0,3.1932,3.1946,3.2025,3.2062,3.2073,3.2123,3.2155,3.2197,3.2211,3.227,3.2285,3.2306,3.2359,3.2371,3.2434,3.2439,3.252,3.2515,3.2507,3.2507,3.2555,3.255,3.271,3.2731,3.2598,3.26,3.2601,0,3.2002,3.205,3.2093,3.2124,3.2147,3.2197,3.2229,3.2236,3.2269,3.2315,3.2352,3.2404,3.2447,3.2533,3.2553,3.2601,3.2596,3.2649,3.2604,3.2601,3.2596,3.2593,3.2597,3.2658,3.2659,3.266,3.2661,0,3.2124,3.2128,3.2175,3.2224,3.2262,3.23,3.2337,3.2363,3.2375,3.2413,3.2467,3.25,3.2565,3.2617,3.2665,3.2685,3.2675,3.2676,3.2689,3.2689,3.2683,3.2686,3.253,3.2672,3.2671,3.267,3.2669,3.2669,3.221,3.2252,3.2288,3.234,3.2369,3.2403,3.2444,3.2463,3.2509,3.2562,3.2563,3.2623,3.2658,3.2722,3.2745,3.2791,3.2774,3.2794,3.2799,3.2804,3.2808,3.2676,3.28,3.2799,3.2799,3.2799,3.2799,0,3.2331,3.2353,3.2401,3.2453,3.2493,3.248,3.252,3.2554,3.2607,3.2641,3.2683,3.2745,3.2795,3.2819,3.2868,3.29,3.2897,3.2913,3.291,3.2915,3.282,3.2803,3.2915,3.2915,3.2915,3.2915,3.2915,3.2915,3.2398,3.2469,3.2478,3.2562,3.2584,3.2642,3.2666,3.2697,3.2724,3.2794,3.2836,3.2851,3.2881,3.2932,3.2977,3.2983,3.3001,3.3019,3.3023,3.2934,3.2922,3.2911,3.2894,3.3023,3.3024,3.3113,3.3114,3.3115]}]]